This demonstration page uses our WeatherBlox Daily Observations layout. Learn more.

41.55636, -103.73856

Hourly Observations for December 26, 2015

Temp ( °F °C ) Dew Point ( °F °C ) Humidity (%) Winds ( mph kmh ) Pressure ( in mb ) Visibility ( mi km ) Precip ( " mm )
12:00 am 00:00 Windy with Snow Likely 18 -8 12 -11 79 79 N 23 37 30.18 1022 2 3.21868 0 0
12:48 am 00:48 Windy with Snow Likely 16 -9 10 -12 79 79 N 22 35 30.24 1024 3 4.82802 0 0
12:53 am 00:53 Windy with Snow Likely 16 -8.9 11 -11.7 80 80 N 20 31 30.09 1019 3 4.82802 0 0.0254
1:53 am 01:53 Cloudy with Light Snow 16 -8.9 10 -12.2 77 77 N 18 30 30.13 1020 4 6.43736 0 0.0254
2:06 am 02:06 Windy with Snow Likely 16 -9 10 -12 79 79 N 21 33 30.27 1025 3 4.82802 0 0
2:16 am 02:16 Windy with Snow Likely 18 -8 10 -12 73 73 N 21 33 30.27 1025 2.5 4.02335 0 0
2:36 am 02:36 Windy with Snow Likely 18 -8 10 -12 73 73 N 21 33 30.27 1025 1.5 2.41401 0 0
2:53 am 02:53 Windy with Snow Likely 17 -8.3 11 -11.7 77 77 N 21 33 30.16 1021 1.5 2.41401 0 0.0254
3:53 am 03:53 Mostly Cloudy with Scattered Snow Showers 17 -8.3 12 -11.1 80 80 N 21 33 30.19 1023 1 1.60934 0 0.0254
4:25 am 04:25 Windy with Snow Likely 17 -8.3 12 -11.1 80 80 NNW 24 39 30.36 1028 1.75 2.816345 0 0.0254
4:35 am 04:35 Windy with Snow Likely 17 -8.3 12 -11.1 80 80 NNW 20 31 30.36 1028 2 3.21868 0 0.0254
4:53 am 04:53 Windy with Snow Likely 18 -7.8 12 -11.1 77 77 NNW 21 33 30.23 1024 2.5 4.02335 0 0.0254
5:13 am 05:13 Cloudy with Light Snow 18 -7.8 12 -11.1 77 77 undefined N/A 30.39 1029 2 3.21868 0 0.0254
5:53 am 05:53 Cloudy with Light Snow 18 -7.8 12 -11.1 77 77 NNW 16 26 30.28 1025 2.5 4.02335 0 0.0254
6:21 am 06:21 Cloudy with Light Snow 18 -7.8 13 -10.6 81 81 NW 9 15 30.42 1030 1.5 2.41401 0 0.0254
6:41 am 06:41 Cloudy with Light Snow 17 -8.3 12 -11.1 80 80 NW 17 28 30.42 1030 2.5 4.02335 0 0.0254
6:50 am 06:50 Cloudy with Light Snow 18 -8 10 -12 73 73 NNW 17 28 30.45 1031 3 4.82802 0 0
6:53 am 06:53 Cloudy with Light Snow 17 -8.3 11 -11.7 77 77 NW 17 28 30.34 1027 3 4.82802 0 0.0254
7:20 am 07:20 Cloudy with Light Snow 16 -9 10 -12 79 79 NW 16 26 30.5 1033 6 9.65604 0 0
7:53 am 07:53 Cloudy 15 -9.4 8 -13.3 74 74 NW 16 26 30.4 1030 10 16.0934 0 0.0254
8:37 am 08:37 Cloudy 15 -9.4 8 -13.3 74 74 NW 16 26 30.56 1035 7 11.26538 0 0.0254
8:53 am 08:53 Cloudy with Light Snow 15 -9.4 8 -13.3 74 74 NW 16 26 30.44 1031 4 6.43736 0 0.0254
9:03 am 09:03 Cloudy with Light Snow 16 -9 9 -13 73 73 NW 14 22 30.56 1035 3 4.82802 0 0
9:53 am 09:53 Cloudy 16 -8.9 7 -13.9 67 67 NW 18 30 30.49 1032 10 16.0934 0 0.0254
10:53 am 10:53 Mostly Cloudy 17 -8.3 8 -13.3 68 68 NW 18 30 30.53 1034 10 16.0934 0 0
11:51 am 11:51 Mostly Cloudy 18 -8 7 -14 62 62 NW 17 28 30.62 1037 10 16.0934 0 0
11:53 am 11:53 Mostly Cloudy 18 -7.8 8 -13.3 65 65 NW 20 31 30.52 1034 10 16.0934 0 0
12:11 pm 12:11 Partly Cloudy 17 -8.3 7 -13.9 64 64 NW 17 28 30.62 1037 10 16.0934 0 0
12:53 pm 12:53 Sunny 17 -8.3 7 -13.9 64 64 NW 21 33 30.53 1034 10 16.0934 0 0
1:32 pm 13:32 Mostly Cloudy 19 -7 10 -12 68 68 NNW 20 31 30.59 1036 10 16.0934 0 0
1:53 pm 13:53 Cloudy 19 -7.2 10 -12.2 68 68 NNW 20 31 30.54 1034 10 16.0934 0 0.0254
2:53 pm 14:53 Cloudy 19 -7.2 10 -12.2 68 68 NW 16 26 30.56 1035 10 16.0934 0 0.0254
3:53 pm 15:53 Cloudy 19 -7.2 11 -11.7 71 71 NW 16 26 30.57 1035 10 16.0934 0 0
4:53 pm 16:53 Cloudy 18 -7.8 10 -12.2 71 71 NW 8 13 30.59 1036 10 16.0934 0 0
5:53 pm 17:53 Partly Cloudy 15 -9.4 7 -13.9 70 70 W 6 9 30.62 1037 10 16.0934 0 0
6:53 pm 18:53 Clear 11 -11.7 5 -15 77 77 WNW 7 11 30.66 1038 10 16.0934 0 0
7:53 pm 19:53 Clear 8 -13.3 3 -16.1 80 80 WNW 8 13 30.69 1039 10 16.0934 0 0
8:53 pm 20:53 Clear 4 -15.6 0 -17.8 83 83 NNW 5 7 30.74 1041 10 16.0934 0 0
9:53 pm 21:53 Clear 5 -15 0 -17.8 79 79 NNW 10 17 30.74 1041 10 16.0934 0 0
10:53 pm 22:53 Clear 7 -13.9 1 -17.2 76 76 NNW 15 24 30.73 1041 10 16.0934 0 0
11:53 pm 23:53 Clear 6 -14.4 1 -17.2 79 79 NNW 10 17 30.72 1040 10 16.0934 0 0

Powered by AerisWeather